カタログに戻る

BLOCK DM-SL R/B

運用中HEO
NORAD 28645·ROCKET BODY· XX

打ち上げ Apr 26, 2005 から Sea Launch Platform

Loading…

次のパス (今後24時間)

TLE

最新Source: Space-Track

元期: Sep 14, 2026, 07:24 UTC

1 28645U 05015B   26257.30850383  .00008342  00000-0  96963-3 0  9991
2 28645   0.0949 346.7766 6468108 151.0373 296.0834  3.38591963220903

AllMySatでBLOCK DM-SL R/Bをリアルタイム追跡

Download on the App Store